"Sample Date","Sample Time","Sample Value","Units","Flow Rate","Number Channels","Micron Size 0","Counts/Channel 0","Micron Size 1","Counts/Channel 1","Micron Size 2","Counts/Channel 2","Micron Size 3","Counts/Channel 3","Micron Size 4","Counts/Channel 4","Micron Size 5","Counts/Channel 5","Micron Size 6","Counts/Channel 6","Micron Size 7","Counts/Channel 7","Micron Size 8","Counts/Channel 8","Micron Size 9","Counts/Channel 9","Micron Size 10","Counts/Channel 10","Micron Size 11","Counts/Channel 11","Micron Size 12","Counts/Channel 12","Micron Size 13","Counts/Channel 13","Micron Size 14","Counts/Channel 14","Micron Size 15","Counts/Channel 15","Micron Size 16","Counts/Channel 16","Micron Size 17","Counts/Channel 17","Micron Size 18","Counts/Channel 18","Micron Size 19","Counts/Channel 19","Micron Size 20","Counts/Channel 20","Micron Size 21","Counts/Channel 21","Micron Size 22","Counts/Channel 22","Micron Size 23","Counts/Channel 23","Micron Size 24","Counts/Channel 24","Micron Size 25","Counts/Channel 25","Micron Size 26","Counts/Channel 26","Micron Size 27","Counts/Channel 27","Micron Size 28","Counts/Channel 28","Micron Size 29","Counts/Channel 29","Micron Size 30","Counts/Channel 30","Micron Size 31","Counts/Channel 31"
"05/08/08","18:00:03",1699.000,"cc",28339.398,6,0.100,1341.000,0.200,310.000,0.300,37.000,0.500,10.000,1.000,1.000,5.000,0
"05/08/08","18:00:09",1649.000,"cc",28271.904,6,0.100,1295.000,0.200,305.000,0.300,40.000,0.500,9.000,1.000,0,5.000,0
"05/08/08","18:00:15",1670.000,"cc",28269.322,6,0.100,1333.000,0.200,287.000,0.300,35.000,0.500,14.000,1.000,1.000,5.000,0
"05/08/08","18:00:21",1627.000,"cc",28300.791,6,0.100,1293.000,0.200,284.000,0.300,37.000,0.500,9.000,1.000,4.000,5.000,0
"05/08/08","18:00:27",1658.000,"cc",28314.342,6,0.100,1305.000,0.200,301.000,0.300,40.000,0.500,11.000,1.000,1.000,5.000,0
"05/08/08","18:00:33",1595.000,"cc",28358.311,6,0.100,1232.000,0.200,301.000,0.300,43.000,0.500,16.000,1.000,3.000,5.000,0
"05/08/08","18:00:39",1739.000,"cc",28355.859,6,0.100,1388.000,0.200,299.000,0.300,39.000,0.500,11.000,1.000,2.000,5.000,0
"05/08/08","18:00:45",1683.000,"cc",28251.801,6,0.100,1290.000,0.200,326.000,0.300,48.000,0.500,16.000,1.000,3.000,5.000,0
"05/08/08","18:00:51",1749.000,"cc",28254.158,6,0.100,1391.000,0.200,297.000,0.300,46.000,0.500,11.000,1.000,4.000,5.000,0
"05/08/08","18:00:57",1804.000,"cc",28240.426,6,0.100,1419.000,0.200,328.000,0.300,38.000,0.500,16.000,1.000,3.000,5.000,0
"05/08/08","18:01:03",1812.000,"cc",28370.475,6,0.100,1407.000,0.200,354.000,0.300,41.000,0.500,10.000,1.000,0,5.000,0
"05/08/08","18:01:09",1790.000,"cc",28357.986,6,0.100,1420.000,0.200,304.000,0.300,45.000,0.500,18.000,1.000,3.000,5.000,0
"05/08/08","18:01:15",1820.000,"cc",28286.465,6,0.100,1437.000,0.200,317.000,0.300,44.000,0.500,21.000,1.000,1.000,5.000,0
"05/08/08","18:01:21",1817.000,"cc",28336.791,6,0.100,1432.000,0.200,329.000,0.300,36.000,0.500,20.000,1.000,0,5.000,0
"05/08/08","18:01:27",1874.000,"cc",28307.430,6,0.100,1465.000,0.200,347.000,0.300,46.000,0.500,13.000,1.000,3.000,5.000,0
"05/08/08","18:01:33",1867.000,"cc",28306.482,6,0.100,1480.000,0.200,321.000,0.300,46.000,0.500,18.000,1.000,2.000,5.000,0
"05/08/08","18:01:39",1864.000,"cc",28355.301,6,0.100,1452.000,0.200,344.000,0.300,60.000,0.500,7.000,1.000,1.000,5.000,0
"05/08/08","18:01:45",1843.000,"cc",28298.262,6,0.100,1435.000,0.200,315.000,0.300,72.000,0.500,13.000,1.000,8.000,5.000,0
"05/08/08","18:01:51",1806.000,"cc",28297.762,6,0.100,1386.000,0.200,346.000,0.300,57.000,0.500,16.000,1.000,1.000,5.000,0
"05/08/08","18:01:57",1819.000,"cc",28344.988,6,0.100,1440.000,0.200,311.000,0.300,50.000,0.500,14.000,1.000,4.000,5.000,0
"05/08/08","18:02:03",1863.000,"cc",28366.549,6,0.100,1484.000,0.200,326.000,0.300,42.000,0.500,10.000,1.000,1.000,5.000,0
"05/08/08","18:02:09",1906.000,"cc",28306.709,6,0.100,1484.000,0.200,361.000,0.300,41.000,0.500,19.000,1.000,1.000,5.000,0
"05/08/08","18:02:15",1833.000,"cc",28376.363,6,0.100,1433.000,0.200,330.000,0.300,59.000,0.500,10.000,1.000,1.000,5.000,0
"05/08/08","18:02:21",1921.000,"cc",28289.633,6,0.100,1486.000,0.200,351.000,0.300,61.000,0.500,21.000,1.000,2.000,5.000,0
"05/08/08","18:02:27",1879.000,"cc",28238.604,6,0.100,1471.000,0.200,334.000,0.300,48.000,0.500,25.000,1.000,1.000,5.000,0
"05/08/08","18:02:33",1810.000,"cc",28356.764,6,0.100,1428.000,0.200,325.000,0.300,36.000,0.500,20.000,1.000,1.000,5.000,0
"05/08/08","18:02:39",1859.000,"cc",28326.998,6,0.100,1457.000,0.200,349.000,0.300,42.000,0.500,8.000,1.000,3.000,5.000,0
"05/08/08","18:02:45",1866.000,"cc",28338.477,6,0.100,1438.000,0.200,368.000,0.300,46.000,0.500,12.000,1.000,2.000,5.000,0
"05/08/08","18:02:51",1962.000,"cc",28264.043,6,0.100,1538.000,0.200,334.000,0.300,63.000,0.500,26.000,1.000,1.000,5.000,0
"05/08/08","18:02:57",1829.000,"cc",28297.088,6,0.100,1428.000,0.200,319.000,0.300,61.000,0.500,20.000,1.000,1.000,5.000,0
"05/08/08","18:03:03",1900.000,"cc",28288.104,6,0.100,1479.000,0.200,348.000,0.300,54.000,0.500,16.000,1.000,3.000,5.000,0
"05/08/08","18:03:09",1927.000,"cc",28293.897,6,0.100,1495.000,0.200,366.000,0.300,49.000,0.500,14.000,1.000,3.000,5.000,0
"05/08/08","18:03:15",1973.000,"cc",28271.033,6,0.100,1541.000,0.200,350.000,0.300,65.000,0.500,16.000,1.000,1.000,5.000,0
"05/08/08","18:03:21",1973.000,"cc",28389.443,6,0.100,1548.000,0.200,362.000,0.300,47.000,0.500,15.000,1.000,1.000,5.000,0
"05/08/08","18:03:27",1921.000,"cc",28392.318,6,0.100,1500.000,0.200,352.000,0.300,52.000,0.500,16.000,1.000,1.000,5.000,0
"05/08/08","18:03:33",1954.000,"cc",28317.359,6,0.100,1543.000,0.200,348.000,0.300,45.000,0.500,16.000,1.000,2.000,5.000,0
"05/08/08","18:03:39",2077.000,"cc",28320.301,6,0.100,1621.000,0.200,385.000,0.300,55.000,0.500,13.000,1.000,3.000,5.000,0
"05/08/08","18:03:45",2027.000,"cc",28306.844,6,0.100,1582.000,0.200,373.000,0.300,56.000,0.500,16.000,1.000,0,5.000,0
"05/08/08","18:03:51",2118.000,"cc",28204.219,6,0.100,1668.000,0.200,385.000,0.300,44.000,0.500,17.000,1.000,4.000,5.000,0
"05/08/08","18:03:57",2037.000,"cc",28369.557,6,0.100,1600.000,0.200,357.000,0.300,58.000,0.500,18.000,1.000,4.000,5.000,0
"05/08/08","18:04:03",2019.000,"cc",28315.154,6,0.100,1575.000,0.200,375.000,0.300,56.000,0.500,9.000,1.000,4.000,5.000,0
"05/08/08","18:04:09",2005.000,"cc",28225.541,6,0.100,1579.000,0.200,357.000,0.300,49.000,0.500,18.000,1.000,2.000,5.000,0
"05/08/08","18:04:15",2099.000,"cc",28312.147,6,0.100,1674.000,0.200,362.000,0.300,44.000,0.500,17.000,1.000,2.000,5.000,0
"05/08/08","18:04:21",2087.000,"cc",28435.348,6,0.100,1695.000,0.200,339.000,0.300,43.000,0.500,10.000,1.000,0,5.000,0
"05/08/08","18:04:27",2057.000,"cc",28344.361,6,0.100,1650.000,0.200,352.000,0.300,47.000,0.500,6.000,1.000,2.000,5.000,0
"05/08/08","18:04:33",2138.000,"cc",28296.049,6,0.100,1694.000,0.200,378.000,0.300,56.000,0.500,8.000,1.000,2.000,5.000,0
"05/08/08","18:04:39",2124.000,"cc",28291.895,6,0.100,1654.000,0.200,383.000,0.300,71.000,0.500,13.000,1.000,3.000,5.000,0
"05/08/08","18:04:45",2009.000,"cc",28283.328,6,0.100,1592.000,0.200,358.000,0.300,41.000,0.500,14.000,1.000,4.000,5.000,0
"05/08/08","18:04:51",2161.000,"cc",28268.074,6,0.100,1731.000,0.200,355.000,0.300,51.000,0.500,21.000,1.000,3.000,5.000,0
"05/08/08","18:04:57",2057.000,"cc",28314.522,6,0.100,1630.000,0.200,368.000,0.300,40.000,0.500,16.000,1.000,3.000,5.000,0
"05/08/08","18:05:03",2184.000,"cc",28311.104,6,0.100,1737.000,0.200,373.000,0.300,61.000,0.500,13.000,1.000,0,5.000,0
"05/08/08","18:05:09",2078.000,"cc",28370.377,6,0.100,1620.000,0.200,384.000,0.300,51.000,0.500,14.000,1.000,9.000,5.000,0
"05/08/08","18:05:15",2116.000,"cc",28316.254,6,0.100,1689.000,0.200,357.000,0.300,59.000,0.500,8.000,1.000,3.000,5.000,0
"05/08/08","18:05:21",2207.000,"cc",28347.568,6,0.100,1744.000,0.200,395.000,0.300,55.000,0.500,11.000,1.000,2.000,5.000,0
"05/08/08","18:05:27",2159.000,"cc",28355.986,6,0.100,1723.000,0.200,361.000,0.300,57.000,0.500,15.000,1.000,3.000,5.000,0
"05/08/08","18:05:33",2124.000,"cc",28295.025,6,0.100,1685.000,0.200,358.000,0.300,57.000,0.500,22.000,1.000,2.000,5.000,0
"05/08/08","18:05:39",2114.000,"cc",28331.139,6,0.100,1654.000,0.200,400.000,0.300,41.000,0.500,17.000,1.000,2.000,5.000,0
"05/08/08","18:05:45",2197.000,"cc",28319.481,6,0.100,1737.000,0.200,380.000,0.300,63.000,0.500,13.000,1.000,4.000,5.000,0
"05/08/08","18:05:51",2070.000,"cc",28309.082,6,0.100,1608.000,0.200,399.000,0.300,54.000,0.500,9.000,1.000,0,5.000,0
"05/08/08","18:05:57",1990.000,"cc",28309.883,6,0.100,1566.000,0.200,351.000,0.300,52.000,0.500,17.000,1.000,4.000,5.000,0
"05/08/08","18:06:03",2121.000,"cc",28279.557,6,0.100,1619.000,0.200,394.000,0.300,71.000,0.500,28.000,1.000,9.000,5.000,0
"05/08/08","18:06:09",2210.000,"cc",28372.301,6,0.100,1760.000,0.200,369.000,0.300,62.000,0.500,17.000,1.000,2.000,5.000,0
"05/08/08","18:06:15",2291.000,"cc",28292.666,6,0.100,1813.000,0.200,385.000,0.300,74.000,0.500,16.000,1.000,3.000,5.000,0
"05/08/08","18:06:21",2252.000,"cc",28302.047,6,0.100,1760.000,0.200,423.000,0.300,59.000,0.500,10.000,1.000,0,5.000,0
"05/08/08","18:06:27",2247.000,"cc",28366.898,6,0.100,1781.000,0.200,385.000,0.300,57.000,0.500,17.000,1.000,7.000,5.000,0
"05/08/08","18:06:33",2315.000,"cc",28328.377,6,0.100,1856.000,0.200,397.000,0.300,51.000,0.500,10.000,1.000,1.000,5.000,0
"05/08/08","18:06:39",2343.000,"cc",28293.607,6,0.100,1805.000,0.200,443.000,0.300,79.000,0.500,13.000,1.000,3.000,5.000,0
"05/08/08","18:06:45",2393.000,"cc",28294.264,6,0.100,1874.000,0.200,434.000,0.300,63.000,0.500,18.000,1.000,4.000,5.000,0
"05/08/08","18:06:51",2358.000,"cc",28297.625,6,0.100,1844.000,0.200,433.000,0.300,66.000,0.500,15.000,1.000,0,5.000,0
"05/08/08","18:06:57",2329.000,"cc",28269.457,6,0.100,1841.000,0.200,399.000,0.300,69.000,0.500,20.000,1.000,0,5.000,0
"05/08/08","18:07:03",2478.000,"cc",28325.957,6,0.100,1993.000,0.200,408.000,0.300,51.000,0.500,22.000,1.000,4.000,5.000,0
"05/08/08","18:07:09",2550.000,"cc",28307.770,6,0.100,2031.000,0.200,421.000,0.300,79.000,0.500,19.000,1.000,0,5.000,0
"05/08/08","18:07:15",2547.000,"cc",28335.590,6,0.100,2000.000,0.200,465.000,0.300,58.000,0.500,21.000,1.000,3.000,5.000,0
"05/08/08","18:07:21",2625.000,"cc",28382.158,6,0.100,2077.000,0.200,466.000,0.300,64.000,0.500,16.000,1.000,2.000,5.000,0
"05/08/08","18:07:27",2570.000,"cc",28352.928,6,0.100,2066.000,0.200,425.000,0.300,57.000,0.500,17.000,1.000,5.000,5.000,0
"05/08/08","18:07:33",2543.000,"cc",28344.127,6,0.100,1988.000,0.200,470.000,0.300,61.000,0.500,18.000,1.000,6.000,5.000,0
"05/08/08","18:07:39",2676.000,"cc",28279.916,6,0.100,2115.000,0.200,470.000,0.300,71.000,0.500,18.000,1.000,2.000,5.000,0
"05/08/08","18:07:45",2571.000,"cc",28358.963,6,0.100,2018.000,0.200,451.000,0.300,84.000,0.500,16.000,1.000,2.000,5.000,0
"05/08/08","18:07:51",2734.000,"cc",28329.137,6,0.100,2132.000,0.200,491.000,0.300,82.000,0.500,27.000,1.000,2.000,5.000,0
"05/08/08","18:07:57",2637.000,"cc",28324.463,6,0.100,2087.000,0.200,470.000,0.300,66.000,0.500,12.000,1.000,2.000,5.000,0
"05/08/08","18:08:03",2575.000,"cc",28294.432,6,0.100,2050.000,0.200,439.000,0.300,70.000,0.500,15.000,1.000,1.000,5.000,0
"05/08/08","18:08:09",2610.000,"cc",28295.082,6,0.100,2071.000,0.200,446.000,0.300,69.000,0.500,20.000,1.000,4.000,5.000,0
"05/08/08","18:08:15",2689.000,"cc",28236.068,6,0.100,2124.000,0.200,482.000,0.300,68.000,0.500,14.000,1.000,1.000,5.000,0
"05/08/08","18:08:21",2809.000,"cc",28264.578,6,0.100,2261.000,0.200,463.000,0.300,63.000,0.500,20.000,1.000,2.000,5.000,0
"05/08/08","18:08:27",2757.000,"cc",28399.106,6,0.100,2155.000,0.200,519.000,0.300,60.000,0.500,19.000,1.000,4.000,5.000,0
"05/08/08","18:08:33",2784.000,"cc",28309.404,6,0.100,2174.000,0.200,502.000,0.300,77.000,0.500,29.000,1.000,2.000,5.000,0
"05/08/08","18:08:39",2867.000,"cc",28303.094,6,0.100,2224.000,0.200,525.000,0.300,94.000,0.500,19.000,1.000,5.000,5.000,0
"05/08/08","18:08:45",2885.000,"cc",28380.279,6,0.100,2262.000,0.200,518.000,0.300,81.000,0.500,20.000,1.000,4.000,5.000,0
"05/08/08","18:08:51",2883.000,"cc",28322.924,6,0.100,2264.000,0.200,521.000,0.300,74.000,0.500,23.000,1.000,1.000,5.000,0
"05/08/08","18:08:57",2981.000,"cc",28293.727,6,0.100,2356.000,0.200,541.000,0.300,61.000,0.500,20.000,1.000,3.000,5.000,0
"05/08/08","18:09:03",2957.000,"cc",28316.039,6,0.100,2294.000,0.200,561.000,0.300,80.000,0.500,17.000,1.000,5.000,5.000,0
"05/08/08","18:09:09",2969.000,"cc",28298.813,6,0.100,2335.000,0.200,533.000,0.300,74.000,0.500,23.000,1.000,4.000,5.000,0
"05/08/08","18:09:15",2997.000,"cc",28343.398,6,0.100,2389.000,0.200,512.000,0.300,71.000,0.500,22.000,1.000,3.000,5.000,0
"05/08/08","18:09:21",2845.000,"cc",28321.619,6,0.100,2216.000,0.200,521.000,0.300,83.000,0.500,17.000,1.000,8.000,5.000,0
"05/08/08","18:09:27",2935.000,"cc",28319.203,6,0.100,2289.000,0.200,545.000,0.300,82.000,0.500,18.000,1.000,1.000,5.000,0
"05/08/08","18:09:33",3005.000,"cc",28366.549,6,0.100,2384.000,0.200,529.000,0.300,64.000,0.500,24.000,1.000,4.000,5.000,0
"05/08/08","18:09:39",3092.000,"cc",28330.377,6,0.100,2451.000,0.200,548.000,0.300,77.000,0.500,14.000,1.000,2.000,5.000,0
"05/08/08","18:09:45",2938.000,"cc",28349.135,6,0.100,2274.000,0.200,559.000,0.300,80.000,0.500,22.000,1.000,3.000,5.000,0
"05/08/08","18:09:51",3013.000,"cc",28268.094,6,0.100,2340.000,0.200,550.000,0.300,93.000,0.500,26.000,1.000,4.000,5.000,0
"05/08/08","18:09:57",3029.000,"cc",28331.654,6,0.100,2307.000,0.200,622.000,0.300,75.000,0.500,21.000,1.000,4.000,5.000,0
"05/08/08","18:10:03",3220.000,"cc",28300.086,6,0.100,2535.000,0.200,593.000,0.300,68.000,0.500,20.000,1.000,4.000,5.000,0
"05/08/08","18:10:09",3136.000,"cc",28268.865,6,0.100,2444.000,0.200,579.000,0.300,92.000,0.500,18.000,1.000,3.000,5.000,0
"05/08/08","18:10:15",3008.000,"cc",28371.092,6,0.100,2337.000,0.200,560.000,0.300,86.000,0.500,20.000,1.000,5.000,5.000,0
"05/08/08","18:10:21",3040.000,"cc",28281.668,6,0.100,2378.000,0.200,554.000,0.300,84.000,0.500,20.000,1.000,4.000,5.000,0
"05/08/08","18:10:27",3076.000,"cc",28245.336,6,0.100,2415.000,0.200,544.000,0.300,93.000,0.500,21.000,1.000,3.000,5.000,0
"05/08/08","18:10:33",3016.000,"cc",28374.186,6,0.100,2344.000,0.200,570.000,0.300,75.000,0.500,22.000,1.000,5.000,5.000,0
"05/08/08","18:10:39",2940.000,"cc",28319.428,6,0.100,2339.000,0.200,504.000,0.300,72.000,0.500,19.000,1.000,6.000,5.000,0
"05/08/08","18:10:45",2898.000,"cc",28363.307,6,0.100,2277.000,0.200,521.000,0.300,71.000,0.500,24.000,1.000,5.000,5.000,0
"05/08/08","18:10:51",2864.000,"cc",28257.357,6,0.100,2212.000,0.200,553.000,0.300,73.000,0.500,21.000,1.000,5.000,5.000,0
"05/08/08","18:10:57",2922.000,"cc",28284.139,6,0.100,2293.000,0.200,532.000,0.300,62.000,0.500,30.000,1.000,5.000,5.000,0
"05/08/08","18:11:03",3016.000,"cc",28319.803,6,0.100,2368.000,0.200,542.000,0.300,74.000,0.500,29.000,1.000,3.000,5.000,0
"05/08/08","18:11:09",2957.000,"cc",28340.043,6,0.100,2312.000,0.200,545.000,0.300,77.000,0.500,19.000,1.000,4.000,5.000,0
"05/08/08","18:11:15",2990.000,"cc",28340.850,6,0.100,2290.000,0.200,593.000,0.300,85.000,0.500,20.000,1.000,2.000,5.000,0
"05/08/08","18:11:21",2951.000,"cc",28289.352,6,0.100,2344.000,0.200,534.000,0.300,49.000,0.500,20.000,1.000,4.000,5.000,0
"05/08/08","18:11:27",2942.000,"cc",28315.170,6,0.100,2300.000,0.200,549.000,0.300,76.000,0.500,16.000,1.000,1.000,5.000,0
"05/08/08","18:11:33",3093.000,"cc",28359.190,6,0.100,2408.000,0.200,574.000,0.300,89.000,0.500,21.000,1.000,1.000,5.000,0
"05/08/08","18:11:39",2992.000,"cc",28321.109,6,0.100,2344.000,0.200,535.000,0.300,87.000,0.500,26.000,1.000,0,5.000,0
"05/08/08","18:11:45",3038.000,"cc",28293.670,6,0.100,2375.000,0.200,561.000,0.300,86.000,0.500,14.000,1.000,2.000,5.000,0
"05/08/08","18:11:51",3168.000,"cc",28305.535,6,0.100,2503.000,0.200,561.000,0.300,82.000,0.500,18.000,1.000,4.000,5.000,0
"05/08/08","18:11:57",3046.000,"cc",28333.604,6,0.100,2379.000,0.200,557.000,0.300,76.000,0.500,31.000,1.000,3.000,5.000,0
"05/08/08","18:12:03",3114.000,"cc",28333.525,6,0.100,2419.000,0.200,595.000,0.300,68.000,0.500,23.000,1.000,9.000,5.000,0
"05/08/08","18:12:09",2992.000,"cc",28307.061,6,0.100,2358.000,0.200,521.000,0.300,84.000,0.500,25.000,1.000,4.000,5.000,0
"05/08/08","18:12:15",2984.000,"cc",28324.623,6,0.100,2348.000,0.200,534.000,0.300,84.000,0.500,14.000,1.000,4.000,5.000,0
"05/08/08","18:12:21",3025.000,"cc",28296.172,6,0.100,2365.000,0.200,546.000,0.300,84.000,0.500,27.000,1.000,3.000,5.000,0
"05/08/08","18:12:27",3030.000,"cc",28285.629,6,0.100,2430.000,0.200,517.000,0.300,70.000,0.500,11.000,1.000,2.000,5.000,0
"05/08/08","18:12:33",3018.000,"cc",28254.322,6,0.100,2370.000,0.200,543.000,0.300,83.000,0.500,18.000,1.000,4.000,5.000,0
"05/08/08","18:12:39",3022.000,"cc",28300.736,6,0.100,2351.000,0.200,579.000,0.300,70.000,0.500,21.000,1.000,1.000,5.000,0
"05/08/08","18:12:45",3040.000,"cc",28358.520,6,0.100,2369.000,0.200,578.000,0.300,67.000,0.500,23.000,1.000,3.000,5.000,0
"05/08/08","18:12:51",2873.000,"cc",28325.732,6,0.100,2264.000,0.200,508.000,0.300,80.000,0.500,19.000,1.000,2.000,5.000,0
"05/08/08","18:12:57",2882.000,"cc",28346.420,6,0.100,2238.000,0.200,564.000,0.300,59.000,0.500,18.000,1.000,3.000,5.000,0
"05/08/08","18:13:03",2800.000,"cc",28330.143,6,0.100,2192.000,0.200,510.000,0.300,70.000,0.500,21.000,1.000,7.000,5.000,0
"05/08/08","18:13:09",2813.000,"cc",28355.350,6,0.100,2220.000,0.200,497.000,0.300,76.000,0.500,16.000,1.000,4.000,5.000,0
"05/08/08","18:13:15",2798.000,"cc",28312.934,6,0.100,2185.000,0.200,517.000,0.300,75.000,0.500,18.000,1.000,3.000,5.000,0
"05/08/08","18:13:21",2705.000,"cc",28318.504,6,0.100,2080.000,0.200,520.000,0.300,80.000,0.500,20.000,1.000,5.000,5.000,0
"05/08/08","18:13:27",2620.000,"cc",28311.141,6,0.100,2032.000,0.200,503.000,0.300,65.000,0.500,17.000,1.000,3.000,5.000,0
"05/08/08","18:13:33",2663.000,"cc",28295.068,6,0.100,2086.000,0.200,495.000,0.300,58.000,0.500,17.000,1.000,7.000,5.000,0
"05/08/08","18:13:39",2638.000,"cc",28315.967,6,0.100,2079.000,0.200,484.000,0.300,57.000,0.500,16.000,1.000,2.000,5.000,0
"05/08/08","18:13:45",2852.000,"cc",28252.666,6,0.100,2236.000,0.200,525.000,0.300,67.000,0.500,18.000,1.000,6.000,5.000,0
"05/08/08","18:13:51",2711.000,"cc",28322.406,6,0.100,2160.000,0.200,455.000,0.300,74.000,0.500,19.000,1.000,3.000,5.000,0
"05/08/08","18:13:57",2661.000,"cc",28366.824,6,0.100,2114.000,0.200,458.000,0.300,61.000,0.500,27.000,1.000,1.000,5.000,0
"05/08/08","18:14:03",2728.000,"cc",28298.102,6,0.100,2150.000,0.200,477.000,0.300,75.000,0.500,25.000,1.000,1.000,5.000,0
"05/08/08","18:14:09",2673.000,"cc",28333.455,6,0.100,2082.000,0.200,501.000,0.300,73.000,0.500,15.000,1.000,2.000,5.000,0
"05/08/08","18:14:15",2728.000,"cc",28313.836,6,0.100,2154.000,0.200,486.000,0.300,66.000,0.500,16.000,1.000,6.000,5.000,0
"05/08/08","18:14:21",2695.000,"cc",28272.207,6,0.100,2141.000,0.200,464.000,0.300,67.000,0.500,21.000,1.000,2.000,5.000,0
"05/08/08","18:14:27",2661.000,"cc",28288.209,6,0.100,2112.000,0.200,455.000,0.300,77.000,0.500,14.000,1.000,3.000,5.000,0
"05/08/08","18:14:33",2759.000,"cc",28307.496,6,0.100,2170.000,0.200,494.000,0.300,78.000,0.500,14.000,1.000,3.000,5.000,0
"05/08/08","18:14:39",2747.000,"cc",28287.117,6,0.100,2145.000,0.200,523.000,0.300,72.000,0.500,7.000,1.000,0,5.000,0
"05/08/08","18:14:45",2752.000,"cc",28353.443,6,0.100,2160.000,0.200,487.000,0.300,82.000,0.500,18.000,1.000,5.000,5.000,0
"05/08/08","18:14:51",2683.000,"cc",28331.947,6,0.100,2109.000,0.200,486.000,0.300,66.000,0.500,17.000,1.000,5.000,5.000,0
"05/08/08","18:14:57",2794.000,"cc",28273.795,6,0.100,2184.000,0.200,516.000,0.300,77.000,0.500,13.000,1.000,4.000,5.000,0
"05/08/08","18:15:03",2890.000,"cc",28281.305,6,0.100,2272.000,0.200,524.000,0.300,74.000,0.500,19.000,1.000,1.000,5.000,0
"05/08/08","18:15:09",2826.000,"cc",28393.697,6,0.100,2194.000,0.200,522.000,0.300,86.000,0.500,22.000,1.000,2.000,5.000,0
"05/08/08","18:15:15",2806.000,"cc",28323.291,6,0.100,2223.000,0.200,493.000,0.300,70.000,0.500,18.000,1.000,2.000,5.000,0
"05/08/08","18:15:21",2841.000,"cc",28365.180,6,0.100,2256.000,0.200,488.000,0.300,70.000,0.500,23.000,1.000,4.000,5.000,0
"05/08/08","18:15:27",2799.000,"cc",28275.438,6,0.100,2239.000,0.200,484.000,0.300,58.000,0.500,12.000,1.000,6.000,5.000,0
"05/08/08","18:15:33",2755.000,"cc",28346.846,6,0.100,2155.000,0.200,499.000,0.300,62.000,0.500,30.000,1.000,9.000,5.000,0
"05/08/08","18:15:39",2788.000,"cc",28322.850,6,0.100,2187.000,0.200,498.000,0.300,79.000,0.500,22.000,1.000,2.000,5.000,0
"05/08/08","18:15:45",2713.000,"cc",28299.330,6,0.100,2145.000,0.200,468.000,0.300,81.000,0.500,16.000,1.000,3.000,5.000,0
"05/08/08","18:15:51",2762.000,"cc",28323.258,6,0.100,2193.000,0.200,489.000,0.300,65.000,0.500,11.000,1.000,4.000,5.000,0
"05/08/08","18:15:57",2672.000,"cc",28317.494,6,0.100,2090.000,0.200,500.000,0.300,59.000,0.500,18.000,1.000,5.000,5.000,0
"05/08/08","18:16:03",2755.000,"cc",28246.850,6,0.100,2162.000,0.200,490.000,0.300,74.000,0.500,26.000,1.000,3.000,5.000,0
"05/08/08","18:16:09",2706.000,"cc",28320.965,6,0.100,2126.000,0.200,485.000,0.300,64.000,0.500,29.000,1.000,2.000,5.000,0
"05/08/08","18:16:15",2726.000,"cc",28357.012,6,0.100,2167.000,0.200,468.000,0.300,72.000,0.500,16.000,1.000,3.000,5.000,0
"05/08/08","18:16:21",2605.000,"cc",28380.057,6,0.100,2023.000,0.200,488.000,0.300,71.000,0.500,18.000,1.000,5.000,5.000,0
"05/08/08","18:16:27",2632.000,"cc",28306.033,6,0.100,2098.000,0.200,444.000,0.300,67.000,0.500,22.000,1.000,1.000,5.000,0
"05/08/08","18:16:33",2693.000,"cc",28310.176,6,0.100,2115.000,0.200,474.000,0.300,85.000,0.500,15.000,1.000,4.000,5.000,0
"05/08/08","18:16:39",2820.000,"cc",28338.906,6,0.100,2192.000,0.200,524.000,0.300,81.000,0.500,20.000,1.000,3.000,5.000,0
"05/08/08","18:16:45",2654.000,"cc",28322.734,6,0.100,2112.000,0.200,456.000,0.300,66.000,0.500,17.000,1.000,3.000,5.000,0
"05/08/08","18:16:51",2614.000,"cc",28324.295,6,0.100,2079.000,0.200,449.000,0.300,71.000,0.500,13.000,1.000,2.000,5.000,0
"05/08/08","18:16:57",2683.000,"cc",28297.051,6,0.100,2092.000,0.200,507.000,0.300,61.000,0.500,20.000,1.000,3.000,5.000,0
"05/08/08","18:17:03",2661.000,"cc",28332.152,6,0.100,2122.000,0.200,446.000,0.300,67.000,0.500,25.000,1.000,1.000,5.000,0
"05/08/08","18:17:09",2644.000,"cc",28315.320,6,0.100,2076.000,0.200,502.000,0.300,48.000,0.500,16.000,1.000,2.000,5.000,0
"05/08/08","18:17:15",2591.000,"cc",28296.404,6,0.100,2014.000,0.200,492.000,0.300,69.000,0.500,15.000,1.000,1.000,5.000,0
"05/08/08","18:17:21",2622.000,"cc",28292.158,6,0.100,2079.000,0.200,459.000,0.300,58.000,0.500,21.000,1.000,5.000,5.000,0
"05/08/08","18:17:27",2692.000,"cc",28341.020,6,0.100,2113.000,0.200,487.000,0.300,66.000,0.500,25.000,1.000,1.000,5.000,0
"05/08/08","18:17:33",2675.000,"cc",28344.668,6,0.100,2069.000,0.200,505.000,0.300,77.000,0.500,23.000,1.000,1.000,5.000,0
"05/08/08","18:17:39",2565.000,"cc",28340.834,6,0.100,2003.000,0.200,479.000,0.300,68.000,0.500,10.000,1.000,5.000,5.000,0
"05/08/08","18:17:45",2552.000,"cc",28307.283,6,0.100,1975.000,0.200,491.000,0.300,63.000,0.500,20.000,1.000,3.000,5.000,0
"05/08/08","18:17:51",2625.000,"cc",28299.197,6,0.100,2073.000,0.200,475.000,0.300,64.000,0.500,11.000,1.000,2.000,5.000,0
"05/08/08","18:17:57",2511.000,"cc",28297.615,6,0.100,2005.000,0.200,428.000,0.300,56.000,0.500,20.000,1.000,2.000,5.000,0
"05/08/08","18:18:03",2516.000,"cc",28317.109,6,0.100,1998.000,0.200,455.000,0.300,50.000,0.500,13.000,1.000,0,5.000,0
"05/08/08","18:18:09",2574.000,"cc",28340.818,6,0.100,2025.000,0.200,454.000,0.300,78.000,0.500,16.000,1.000,1.000,5.000,0
"05/08/08","18:18:15",2672.000,"cc",28338.533,6,0.100,2068.000,0.200,515.000,0.300,67.000,0.500,21.000,1.000,1.000,5.000,0
"05/08/08","18:18:21",2583.000,"cc",28312.436,6,0.100,2025.000,0.200,463.000,0.300,67.000,0.500,22.000,1.000,6.000,5.000,0